Time,TemperatureF,DewpointF,PressureIn,WindDirection,WindDirectionDegrees,WindSpeedMPH,WindSpeedGustMPH,Humidity,HourlyPrecipIn,Conditions,Clouds,dailyrainin,SoftwareType,DateUTC
2013-05-24 08:29:00,65.0,65.0,29.67,SE,135,0.0,0.0,100,0.01,,---,0.31,VWS V14.00,2013-05-24 12:29:00,
2013-05-24 08:30:00,65.0,65.0,29.67,SE,135,0.0,0.0,100,0.01,,---,0.31,VWS V14.00,2013-05-24 12:30:00,
2013-05-24 08:35:00,65.0,65.0,29.67,SE,135,0.0,0.0,100,0.01,,---,0.31,VWS V14.00,2013-05-24 12:35:00,
2013-05-24 08:40:00,65.0,65.0,29.67,SE,135,0.0,0.0,100,0.01,,---,0.31,VWS V14.00,2013-05-24 12:40:00,
2013-05-24 08:45:00,65.0,65.0,29.67,SE,135,0.0,0.0,100,0.02,,---,0.32,VWS V14.00,2013-05-24 12:45:00,
2013-05-24 08:50:00,65.0,65.0,29.67,SE,135,0.0,0.0,100,0.02,,---,0.32,VWS V14.00,2013-05-24 12:50:00,
2013-05-24 08:55:00,65.0,65.0,29.67,SE,135,0.0,0.0,100,0.02,,---,0.32,VWS V14.00,2013-05-24 12:55:00,
2013-05-24 09:00:00,65.0,65.0,29.67,SE,135,0.0,0.0,100,0.02,,---,0.32,VWS V14.00,2013-05-24 13:00:00,
2013-05-24 09:05:00,65.0,65.0,29.67,SE,135,0.0,0.0,100,0.02,,---,0.32,VWS V14.00,2013-05-24 13:05:00,
2013-05-24 09:10:00,65.0,65.0,29.67,SE,135,0.0,0.0,100,0.02,,---,0.32,VWS V14.00,2013-05-24 13:10:00,
2013-05-24 09:15:00,65.0,65.0,29.67,SE,135,0.0,0.0,100,0.02,,---,0.33,VWS V14.00,2013-05-24 13:15:00,
2013-05-24 09:20:00,65.0,65.0,29.67,SE,135,0.0,0.0,100,0.02,,---,0.33,VWS V14.00,2013-05-24 13:20:00,
2013-05-24 09:25:00,65.0,65.0,29.67,SE,135,0.0,0.0,100,0.02,,---,0.33,VWS V14.00,2013-05-24 13:25:00,
2013-05-24 09:30:00,65.0,65.0,29.67,SE,135,0.0,0.0,100,0.02,,---,0.33,VWS V14.00,2013-05-24 13:30:00,
2013-05-24 09:35:00,65.0,65.0,29.67,SE,135,0.0,0.0,100,0.02,,---,0.33,VWS V14.00,2013-05-24 13:35:00,
2013-05-24 09:40:00,65.0,65.0,29.67,SE,135,0.0,0.0,100,0.02,,---,0.33,VWS V14.00,2013-05-24 13:40:00,
2013-05-24 09:45:00,65.0,65.0,29.67,South,180,0.0,0.0,100,0.01,,---,0.33,VWS V14.00,2013-05-24 13:45:00,
2013-05-24 09:50:00,65.0,65.0,29.67,South,180,0.0,0.0,100,0.01,,---,0.33,VWS V14.00,2013-05-24 13:50:00,
2013-05-24 09:55:00,65.0,65.0,29.68,East,90,0.0,0.0,100,0.01,,---,0.34,VWS V14.00,2013-05-24 13:55:00,
2013-05-24 10:00:00,65.0,65.0,29.68,ESE,112,0.0,0.0,100,0.02,,---,0.34,VWS V14.00,2013-05-24 14:00:00,
2013-05-24 10:05:00,65.0,65.0,29.68,ESE,112,0.0,0.0,100,0.02,,---,0.34,VWS V14.00,2013-05-24 14:05:00,
2013-05-24 10:10:00,66.0,66.0,29.68,SE,135,0.0,0.0,100,0.02,,---,0.34,VWS V14.00,2013-05-24 14:10:00,
2013-05-24 10:15:00,66.0,66.0,29.67,SSE,157,0.0,0.0,100,0.02,,---,0.34,VWS V14.00,2013-05-24 14:15:00,
2013-05-24 10:20:00,66.0,66.0,29.67,SSE,157,0.0,0.0,100,0.01,,---,0.34,VWS V14.00,2013-05-24 14:20:00,
2013-05-24 10:25:00,66.0,66.0,29.68,SSE,157,0.0,0.0,100,0.01,,---,0.34,VWS V14.00,2013-05-24 14:25:00,
2013-05-24 10:30:00,66.0,66.0,29.68,SSE,157,0.0,0.0,100,0.01,,---,0.34,VWS V14.00,2013-05-24 14:30:00,
2013-05-24 10:35:00,66.0,66.0,29.67,SSE,157,0.0,0.0,100,0.02,,---,0.35,VWS V14.00,2013-05-24 14:35:00,
2013-05-24 10:40:00,66.0,66.0,29.67,SSE,157,0.0,0.0,100,0.02,,---,0.35,VWS V14.00,2013-05-24 14:40:00,
2013-05-24 10:45:00,66.0,66.0,29.68,SSE,157,0.0,0.0,100,0.02,,---,0.35,VWS V14.00,2013-05-24 14:45:00,
2013-05-24 10:50:00,66.0,66.0,29.68,SSE,157,0.0,0.0,100,0.02,,---,0.35,VWS V14.00,2013-05-24 14:50:00,
2013-05-24 10:55:00,67.0,67.0,29.68,SE,135,0.0,0.0,100,0.02,,---,0.35,VWS V14.00,2013-05-24 14:55:00,
2013-05-24 11:00:00,67.0,67.0,29.68,SSE,157,0.0,0.0,100,0.01,,---,0.35,VWS V14.00,2013-05-24 15:00:00,
2013-05-24 11:05:00,67.0,67.0,29.68,SSE,157,0.0,0.0,100,0.01,,---,0.35,VWS V14.00,2013-05-24 15:05:00,
2013-05-24 11:10:00,66.0,66.0,29.68,SSW,202,0.0,0.0,100,0.01,,---,0.35,VWS V14.00,2013-05-24 15:10:00,
2013-05-24 11:15:00,66.0,66.0,29.67,ESE,112,0.0,0.0,100,0.01,,---,0.35,VWS V14.00,2013-05-24 15:15:00,
2013-05-24 11:20:00,67.0,67.0,29.67,ESE,112,0.0,0.0,100,0.01,,---,0.35,VWS V14.00,2013-05-24 15:20:00,
2013-05-24 11:25:00,67.0,67.0,29.67,ESE,112,0.0,0.0,100,0.02,,---,0.36,VWS V14.00,2013-05-24 15:25:00,
2013-05-24 11:30:00,67.0,67.0,29.67,ESE,112,0.0,0.0,100,0.02,,---,0.36,VWS V14.00,2013-05-24 15:30:00,
2013-05-24 11:35:00,67.0,67.0,29.67,ESE,112,0.0,0.0,100,0.01,,---,0.36,VWS V14.00,2013-05-24 15:35:00,
2013-05-24 11:40:00,67.0,67.0,29.67,ESE,112,0.0,0.0,100,0.01,,---,0.36,VWS V14.00,2013-05-24 15:40:00,
2013-05-24 11:45:00,67.0,67.0,29.67,ESE,112,0.0,0.0,100,0.01,,---,0.36,VWS V14.00,2013-05-24 15:45:00,
2013-05-24 11:50:00,67.0,67.0,29.67,ESE,112,0.0,0.0,100,0.01,,---,0.36,VWS V14.00,2013-05-24 15:50:00,
2013-05-24 11:55:00,67.0,67.0,29.67,ESE,112,0.0,0.0,100,0.01,,---,0.36,VWS V14.00,2013-05-24 15:55:00,
2013-05-24 12:00:00,67.0,67.0,29.67,ESE,112,0.0,0.0,100,0.01,,---,0.36,VWS V14.00,2013-05-24 16:00:00,
2013-05-24 12:05:00,67.0,67.0,29.67,ESE,112,0.0,0.0,100,0.01,,---,0.37,VWS V14.00,2013-05-24 16:05:00,
2013-05-24 12:10:00,68.0,68.0,29.67,South,180,0.0,0.0,100,0.02,,---,0.37,VWS V14.00,2013-05-24 16:10:00,
2013-05-24 12:15:00,68.0,68.0,29.67,South,180,0.0,0.0,100,0.02,,---,0.37,VWS V14.00,2013-05-24 16:15:00,
2013-05-24 12:20:00,68.0,68.0,29.67,South,180,0.0,0.0,100,0.02,,---,0.37,VWS V14.00,2013-05-24 16:20:00,
2013-05-24 12:25:00,68.0,68.0,29.67,South,180,0.0,0.0,100,0.01,,---,0.37,VWS V14.00,2013-05-24 16:25:00,
2013-05-24 12:30:00,68.0,68.0,29.67,South,180,0.0,0.0,100,0.01,,---,0.37,VWS V14.00,2013-05-24 16:30:00,
2013-05-24 12:35:00,68.0,68.0,29.67,South,180,0.0,0.0,100,0.01,,---,0.37,VWS V14.00,2013-05-24 16:35:00,
2013-05-24 12:40:00,68.0,68.0,29.67,South,180,0.0,0.0,100,0.01,,---,0.37,VWS V14.00,2013-05-24 16:40:00,
2013-05-24 12:45:00,68.0,68.0,29.65,South,180,0.0,0.0,100,0.01,,---,0.37,VWS V14.00,2013-05-24 16:45:00,
2013-05-24 12:50:00,68.0,68.0,29.65,South,180,0.0,0.0,100,0.01,,---,0.37,VWS V14.00,2013-05-24 16:50:00,
2013-05-24 12:55:00,69.0,69.0,29.66,South,180,0.0,0.0,100,0.01,,---,0.37,VWS V14.00,2013-05-24 16:55:00,
2013-05-24 13:00:00,69.0,69.0,29.66,South,180,0.0,0.0,100,0.01,,---,0.37,VWS V14.00,2013-05-24 17:00:00,
2013-05-24 13:05:00,69.0,69.0,29.65,SSE,157,0.0,0.0,100,0.02,,---,0.38,VWS V14.00,2013-05-24 17:05:00,
2013-05-24 13:09:00,69.0,69.0,29.65,SE,135,0.0,0.0,100,0.01,,---,0.38,VWS V14.00,2013-05-24 17:09:00,
2013-05-24 13:14:00,69.0,69.0,29.65,ESE,112,0.0,0.0,100,0.01,,---,0.38,VWS V14.00,2013-05-24 17:14:00,
2013-05-24 13:19:00,69.0,69.0,29.65,SSE,157,0.0,0.0,100,0.01,,---,0.38,VWS V14.00,2013-05-24 17:19:00,
2013-05-24 13:24:00,69.0,69.0,29.65,SSE,157,0.0,0.0,100,0.01,,---,0.38,VWS V14.00,2013-05-24 17:24:00,
2013-05-24 13:29:00,69.0,69.0,29.65,SSE,157,0.0,0.0,100,0.01,,---,0.38,VWS V14.00,2013-05-24 17:29:00,
2013-05-24 13:34:00,70.0,70.0,29.65,SSE,157,0.0,0.0,100,0.01,,---,0.38,VWS V14.00,2013-05-24 17:34:00,
2013-05-24 13:39:00,70.0,70.0,29.65,SSE,157,0.0,0.0,100,0.01,,---,0.38,VWS V14.00,2013-05-24 17:39:00,
2013-05-24 13:44:00,70.0,70.0,29.65,ESE,112,0.0,0.0,100,0.01,,---,0.38,VWS V14.00,2013-05-24 17:44:00,
2013-05-24 13:49:00,70.0,69.4,29.65,ESE,112,0.0,0.0,98,0.01,,---,0.38,VWS V14.00,2013-05-24 17:49:00,
2013-05-24 13:54:00,70.0,69.4,29.65,ESE,112,0.0,0.0,98,0.02,,---,0.39,VWS V14.00,2013-05-24 17:54:00,
2013-05-24 13:59:00,71.0,69.8,29.65,SSE,157,0.0,0.0,96,0.02,,---,0.39,VWS V14.00,2013-05-24 17:59:00,
2013-05-24 14:04:00,70.0,68.8,29.65,SSW,202,0.0,0.0,96,0.01,,---,0.39,VWS V14.00,2013-05-24 18:04:00,
2013-05-24 14:09:00,69.0,67.5,29.65,SSW,202,0.0,0.0,95,0.01,,---,0.39,VWS V14.00,2013-05-24 18:09:00,
2013-05-24 14:14:00,69.0,66.9,29.65,East,90,0.0,0.0,93,0.01,,---,0.39,VWS V14.00,2013-05-24 18:14:00,
2013-05-24 14:19:00,68.0,65.6,29.65,NNW,337,0.0,0.0,92,0.01,,---,0.39,VWS V14.00,2013-05-24 18:19:00,
2013-05-24 14:24:00,68.0,65.9,29.67,SW,225,0.0,0.0,93,0.01,,---,0.39,VWS V14.00,2013-05-24 18:24:00,
2013-05-24 14:29:00,67.0,64.9,29.67,South,180,0.0,0.0,93,0.01,,---,0.39,VWS V14.00,2013-05-24 18:29:00,
2013-05-24 14:34:00,66.0,63.9,29.67,South,180,0.0,0.0,93,0.01,,---,0.39,VWS V14.00,2013-05-24 18:34:00,
2013-05-24 14:39:00,66.0,63.9,29.67,South,180,0.0,0.0,93,0.01,,---,0.39,VWS V14.00,2013-05-24 18:39:00,
2013-05-24 14:44:00,65.0,62.9,29.68,South,180,0.0,0.0,93,0.01,,---,0.39,VWS V14.00,2013-05-24 18:44:00,
2013-05-24 14:49:00,65.0,62.9,29.68,South,180,0.0,0.0,93,0.01,,---,0.39,VWS V14.00,2013-05-24 18:49:00,
2013-05-24 14:54:00,65.0,62.9,29.68,SE,135,0.0,0.0,93,0.00,,---,0.39,VWS V14.00,2013-05-24 18:54:00,
2013-05-24 14:59:00,65.0,62.9,29.68,SE,135,0.0,0.0,93,0.00,,---,0.39,VWS V14.00,2013-05-24 18:59:00,
2013-05-24 15:04:00,65.0,62.9,29.68,SE,135,0.0,0.0,93,0.00,,---,0.39,VWS V14.00,2013-05-24 19:04:00,
2013-05-24 15:09:00,65.0,62.9,29.68,East,90,0.0,0.0,93,0.01,,---,0.40,VWS V14.00,2013-05-24 19:09:00,
2013-05-24 15:14:00,65.0,62.3,29.68,East,90,0.0,0.0,91,0.01,,---,0.40,VWS V14.00,2013-05-24 19:14:00,
2013-05-24 15:19:00,65.0,62.9,29.68,South,180,0.0,0.0,93,0.01,,---,0.40,VWS V14.00,2013-05-24 19:19:00,
2013-05-24 15:24:00,66.0,63.6,29.69,East,90,0.0,0.0,92,0.01,,---,0.40,VWS V14.00,2013-05-24 19:24:00,
2013-05-24 15:29:00,66.0,63.3,29.69,ENE,67,0.0,0.0,91,0.01,,---,0.40,VWS V14.00,2013-05-24 19:29:00,
2013-05-24 15:34:00,66.0,63.3,29.68,SE,135,0.0,0.0,91,0.01,,---,0.40,VWS V14.00,2013-05-24 19:34:00,
2013-05-24 15:39:00,65.0,62.6,29.68,East,90,0.0,0.0,92,0.01,,---,0.40,VWS V14.00,2013-05-24 19:39:00,
2013-05-24 15:44:00,65.0,62.6,29.69,South,180,0.0,0.0,92,0.01,,---,0.40,VWS V14.00,2013-05-24 19:44:00,
2013-05-24 15:49:00,65.0,62.6,29.69,SSE,157,0.0,0.0,92,0.01,,---,0.40,VWS V14.00,2013-05-24 19:49:00,
2013-05-24 15:54:00,65.0,62.3,29.69,SE,135,0.0,0.0,91,0.01,,---,0.40,VWS V14.00,2013-05-24 19:54:00,
2013-05-24 15:59:00,65.0,61.7,29.69,ENE,67,0.0,0.0,89,0.01,,---,0.40,VWS V14.00,2013-05-24 19:59:00,
2013-05-24 16:04:00,65.0,60.7,29.69,SW,225,0.0,0.0,86,0.01,,---,0.40,VWS V14.00,2013-05-24 20:04:00,
2013-05-24 16:09:00,66.0,61.7,29.69,East,90,0.0,0.0,86,0.00,,---,0.40,VWS V14.00,2013-05-24 20:09:00,
2013-05-24 16:14:00,66.0,62.0,29.69,East,90,0.0,0.0,87,0.00,,---,0.40,VWS V14.00,2013-05-24 20:14:00,
2013-05-24 16:19:00,66.0,60.7,29.69,South,180,0.0,0.0,83,0.00,,---,0.40,VWS V14.00,2013-05-24 20:19:00,
2013-05-24 16:24:00,66.0,61.4,29.69,SE,135,0.0,0.0,85,0.01,,---,0.41,VWS V14.00,2013-05-24 20:24:00,
2013-05-24 16:29:00,65.0,60.4,29.69,SE,135,0.0,0.0,85,0.01,,---,0.41,VWS V14.00,2013-05-24 20:29:00,
2013-05-24 16:34:00,65.0,60.0,29.69,SE,135,0.0,0.0,84,0.01,,---,0.41,VWS V14.00,2013-05-24 20:34:00,
2013-05-24 16:39:00,65.0,60.0,29.69,ESE,112,0.0,0.0,84,0.01,,---,0.41,VWS V14.00,2013-05-24 20:39:00,
2013-05-24 16:44:00,65.0,58.3,29.69,NW,315,0.0,6.0,79,0.01,,---,0.41,VWS V14.00,2013-05-24 20:44:00,
2013-05-24 16:49:00,65.0,60.4,29.69,SE,135,0.0,0.0,85,0.01,,---,0.41,VWS V14.00,2013-05-24 20:49:00,
2013-05-24 16:54:00,65.0,59.0,29.70,SSE,157,0.0,0.0,81,0.01,,---,0.41,VWS V14.00,2013-05-24 20:54:00,
2013-05-24 16:59:00,65.0,59.7,29.70,SSE,157,0.0,0.0,83,0.01,,---,0.41,VWS V14.00,2013-05-24 20:59:00,
2013-05-24 17:04:00,64.0,58.7,29.71,NE,45,0.0,0.0,83,0.01,,---,0.41,VWS V14.00,2013-05-24 21:04:00,
2013-05-24 17:09:00,64.0,58.7,29.71,SSW,202,0.0,0.0,83,0.01,,---,0.41,VWS V14.00,2013-05-24 21:09:00,
2013-05-24 17:14:00,64.0,59.4,29.71,SW,225,0.0,0.0,85,0.01,,---,0.41,VWS V14.00,2013-05-24 21:14:00,
2013-05-24 17:19:00,64.0,58.7,29.71,East,90,0.0,4.0,83,0.01,,---,0.41,VWS V14.00,2013-05-24 21:19:00,
2013-05-24 17:24:00,63.0,58.1,29.72,East,90,0.0,0.0,84,0.01,,---,0.41,VWS V14.00,2013-05-24 21:24:00,
2013-05-24 17:29:00,63.0,58.4,29.72,East,90,0.0,0.0,85,0.00,,---,0.41,VWS V14.00,2013-05-24 21:29:00,
2013-05-24 17:34:00,62.0,57.5,29.72,East,90,0.0,3.0,85,0.00,,---,0.41,VWS V14.00,2013-05-24 21:34:00,
2013-05-24 17:39:00,62.0,56.5,29.72,NE,45,0.0,0.0,82,0.00,,---,0.41,VWS V14.00,2013-05-24 21:39:00,
2013-05-24 17:44:00,62.0,57.1,29.72,SE,135,0.0,0.0,84,0.00,,---,0.41,VWS V14.00,2013-05-24 21:44:00,
2013-05-24 17:49:00,61.0,56.5,29.72,SW,225,0.0,0.0,85,0.00,,---,0.41,VWS V14.00,2013-05-24 21:49:00,
2013-05-24 17:54:00,61.0,55.8,29.73,SW,225,0.0,0.0,83,0.00,,---,0.41,VWS V14.00,2013-05-24 21:54:00,
2013-05-24 17:59:00,60.0,54.2,29.73,ESE,112,0.0,0.0,81,0.00,,---,0.41,VWS V14.00,2013-05-24 21:59:00,
2013-05-24 18:04:00,60.0,54.5,29.74,South,180,0.0,2.0,82,0.00,,---,0.41,VWS V14.00,2013-05-24 22:04:00,
2013-05-24 18:09:00,59.0,53.5,29.74,South,180,0.0,0.0,82,0.00,,---,0.41,VWS V14.00,2013-05-24 22:09:00,
2013-05-24 18:14:00,59.0,54.2,29.75,SE,135,0.0,0.0,84,0.00,,---,0.41,VWS V14.00,2013-05-24 22:14:00,
2013-05-24 18:19:00,58.0,52.9,29.75,SSE,157,0.0,0.0,83,0.00,,---,0.41,VWS V14.00,2013-05-24 22:19:00,
2013-05-24 18:24:00,58.0,53.2,29.75,North,360,0.0,0.0,84,0.01,,---,0.42,VWS V14.00,2013-05-24 22:24:00,
2013-05-24 18:29:00,58.0,53.2,29.75,SSE,157,0.0,0.0,84,0.01,,---,0.42,VWS V14.00,2013-05-24 22:29:00,
2013-05-24 18:34:00,58.0,53.2,29.76,North,360,0.0,3.0,84,0.01,,---,0.42,VWS V14.00,2013-05-24 22:34:00,
2013-05-24 18:39:00,57.0,52.2,29.76,ESE,112,0.0,0.0,84,0.01,,---,0.42,VWS V14.00,2013-05-24 22:39:00,
2013-05-24 18:44:00,57.0,52.2,29.77,SSE,157,0.0,0.0,84,0.01,,---,0.42,VWS V14.00,2013-05-24 22:44:00,
2013-05-24 18:49:00,57.0,52.2,29.77,East,90,0.0,0.0,84,0.01,,---,0.42,VWS V14.00,2013-05-24 22:49:00,
2013-05-24 18:54:00,57.0,52.2,29.78,East,90,0.0,0.0,84,0.01,,---,0.42,VWS V14.00,2013-05-24 22:54:00,
2013-05-24 18:59:00,56.0,51.6,29.78,West,270,0.0,2.0,85,0.01,,---,0.42,VWS V14.00,2013-05-24 22:59:00,
2013-05-24 19:04:00,56.0,51.9,29.79,South,180,0.0,0.0,86,0.01,,---,0.42,VWS V14.00,2013-05-24 23:04:00,
2013-05-24 19:09:00,56.0,50.9,29.79,SE,135,0.0,3.0,83,0.01,,---,0.42,VWS V14.00,2013-05-24 23:09:00,
2013-05-24 19:14:00,55.0,50.3,29.80,SSE,157,0.0,2.0,84,0.01,,---,0.42,VWS V14.00,2013-05-24 23:14:00,
2013-05-24 19:19:00,55.0,50.3,29.80,SSW,202,0.0,0.0,84,0.01,,---,0.42,VWS V14.00,2013-05-24 23:19:00,
2013-05-24 19:24:00,55.0,50.3,29.81,WSW,247,0.0,2.0,84,0.01,,---,0.42,VWS V14.00,2013-05-24 23:24:00,
2013-05-24 19:29:00,55.0,50.6,29.81,SSW,202,0.0,0.0,85,0.00,,---,0.42,VWS V14.00,2013-05-24 23:29:00,
2013-05-24 19:34:00,54.0,49.9,29.80,North,360,0.0,0.0,86,0.00,,---,0.42,VWS V14.00,2013-05-24 23:34:00,
2013-05-24 19:39:00,53.0,49.2,29.80,SSE,157,0.0,0.0,87,0.00,,---,0.42,VWS V14.00,2013-05-24 23:39:00,
2013-05-24 19:44:00,53.0,49.2,29.83,SE,135,0.0,0.0,87,0.00,,---,0.42,VWS V14.00,2013-05-24 23:44:00,
2013-05-24 19:49:00,52.0,48.6,29.83,NW,315,0.0,0.0,88,0.00,,---,0.42,VWS V14.00,2013-05-24 23:49:00,
2013-05-24 19:54:00,52.0,49.2,29.83,South,180,0.0,0.0,90,0.00,,---,0.42,VWS V14.00,2013-05-24 23:54:00,
2013-05-24 19:59:00,52.0,49.2,29.83,ESE,112,0.0,0.0,90,0.00,,---,0.42,VWS V14.00,2013-05-24 23:59:00,
2013-05-24 20:04:00,52.0,49.5,29.83,SE,135,0.0,0.0,91,0.00,,---,0.42,VWS V14.00,2013-05-25 00:04:00,
2013-05-24 20:09:00,51.0,48.8,29.83,South,180,0.0,0.0,92,0.00,,---,0.42,VWS V14.00,2013-05-25 00:09:00,
2013-05-24 20:14:00,51.0,49.0,29.84,ESE,112,0.0,0.0,93,0.00,,---,0.42,VWS V14.00,2013-05-25 00:14:00,
2013-05-24 20:19:00,51.0,49.0,29.84,ESE,112,0.0,0.0,93,0.00,,---,0.42,VWS V14.00,2013-05-25 00:19:00,
2013-05-24 20:24:00,51.0,49.0,29.85,ESE,112,0.0,0.0,93,0.00,,---,0.42,VWS V14.00,2013-05-25 00:24:00,
2013-05-24 20:29:00,50.0,48.1,29.85,ESE,112,0.0,0.0,93,0.00,,---,0.42,VWS V14.00,2013-05-25 00:29:00,
2013-05-24 20:34:00,50.0,48.3,29.85,SSE,157,0.0,0.0,94,0.01,,---,0.43,VWS V14.00,2013-05-25 00:34:00,
2013-05-24 20:39:00,50.0,48.3,29.85,SSE,157,0.0,0.0,94,0.01,,---,0.43,VWS V14.00,2013-05-25 00:39:00,
2013-05-24 20:44:00,50.0,48.3,29.85,SSE,157,0.0,0.0,94,0.01,,---,0.43,VWS V14.00,2013-05-25 00:44:00,
2013-05-24 20:49:00,50.0,48.6,29.85,SSE,157,0.0,0.0,95,0.01,,---,0.43,VWS V14.00,2013-05-25 00:49:00,
2013-05-24 20:54:00,50.0,48.6,29.85,SSE,157,0.0,0.0,95,0.01,,---,0.43,VWS V14.00,2013-05-25 00:54:00,
2013-05-24 20:59:00,50.0,48.6,29.85,SSE,157,0.0,0.0,95,0.01,,---,0.43,VWS V14.00,2013-05-25 00:59:00,
2013-05-24 21:04:00,50.0,48.6,29.86,SSE,157,0.0,0.0,95,0.01,,---,0.43,VWS V14.00,2013-05-25 01:04:00,
2013-05-24 21:09:00,50.0,48.9,29.86,South,180,0.0,0.0,96,0.01,,---,0.43,VWS V14.00,2013-05-25 01:09:00,
2013-05-24 21:14:00,50.0,48.9,29.86,SE,135,0.0,0.0,96,0.01,,---,0.43,VWS V14.00,2013-05-25 01:14:00,
2013-05-24 21:19:00,50.0,48.9,29.86,SE,135,0.0,0.0,96,0.01,,---,0.43,VWS V14.00,2013-05-25 01:19:00,
2013-05-24 21:24:00,50.0,49.2,29.86,South,180,0.0,0.0,97,0.01,,---,0.43,VWS V14.00,2013-05-25 01:24:00,
2013-05-24 21:29:00,49.0,47.9,29.86,SSE,157,0.0,0.0,96,0.01,,---,0.43,VWS V14.00,2013-05-25 01:29:00,
2013-05-24 21:34:00,49.0,47.9,29.86,SSE,157,0.0,0.0,96,0.00,,---,0.43,VWS V14.00,2013-05-25 01:34:00,
2013-05-24 21:39:00,49.0,47.9,29.86,SSE,157,0.0,0.0,96,0.00,,---,0.43,VWS V14.00,2013-05-25 01:39:00,
2013-05-24 21:44:00,49.0,47.9,29.86,SSE,157,0.0,0.0,96,0.00,,---,0.43,VWS V14.00,2013-05-25 01:44:00,
2013-05-24 21:49:00,49.0,47.9,29.86,SSE,157,0.0,0.0,96,0.00,,---,0.43,VWS V14.00,2013-05-25 01:49:00,
2013-05-24 21:54:00,49.0,47.9,29.87,SSE,157,0.0,0.0,96,0.00,,---,0.43,VWS V14.00,2013-05-25 01:54:00,
2013-05-24 21:59:00,49.0,47.9,29.87,SSE,157,0.0,0.0,96,0.00,,---,0.43,VWS V14.00,2013-05-25 01:59:00,
2013-05-24 22:04:00,49.0,47.9,29.87,SSE,157,0.0,0.0,96,0.00,,---,0.43,VWS V14.00,2013-05-25 02:04:00,
2013-05-24 22:09:00,49.0,48.2,29.87,East,90,0.0,0.0,97,0.00,,---,0.43,VWS V14.00,2013-05-25 02:09:00,
2013-05-24 22:14:00,49.0,48.2,29.87,SE,135,0.0,0.0,97,0.00,,---,0.43,VWS V14.00,2013-05-25 02:14:00,
2013-05-24 22:19:00,49.0,48.2,29.87,SW,225,0.0,0.0,97,0.00,,---,0.43,VWS V14.00,2013-05-25 02:19:00,
2013-05-24 22:24:00,48.0,47.2,29.87,South,180,0.0,0.0,97,0.00,,---,0.43,VWS V14.00,2013-05-25 02:24:00,
2013-05-24 22:29:00,48.0,47.2,29.87,SE,135,0.0,0.0,97,0.00,,---,0.43,VWS V14.00,2013-05-25 02:29:00,
2013-05-24 22:34:00,48.0,47.2,29.87,SE,135,0.0,0.0,97,0.00,,---,0.43,VWS V14.00,2013-05-25 02:34:00,
2013-05-24 22:39:00,48.0,47.2,29.87,SE,135,0.0,0.0,97,0.00,,---,0.43,VWS V14.00,2013-05-25 02:39:00,
2013-05-24 22:44:00,48.0,47.2,29.87,SE,135,0.0,0.0,97,0.00,,---,0.43,VWS V14.00,2013-05-25 02:44:00,
2013-05-24 22:49:00,48.0,47.2,29.87,South,180,0.0,0.0,97,0.00,,---,0.43,VWS V14.00,2013-05-25 02:49:00,
2013-05-24 22:54:00,48.0,47.2,29.88,SE,135,0.0,0.0,97,0.00,,---,0.43,VWS V14.00,2013-05-25 02:54:00,
2013-05-24 22:59:00,48.0,47.2,29.88,ESE,112,0.0,1.0,97,0.00,,---,0.43,VWS V14.00,2013-05-25 02:59:00,
2013-05-24 23:04:00,48.0,47.2,29.88,ESE,112,0.0,0.0,97,0.00,,---,0.43,VWS V14.00,2013-05-25 03:04:00,
2013-05-24 23:09:00,48.0,47.2,29.88,ESE,112,0.0,0.0,97,0.00,,---,0.43,VWS V14.00,2013-05-25 03:09:00,
2013-05-24 23:14:00,48.0,47.5,29.88,ESE,112,0.0,0.0,98,0.00,,---,0.43,VWS V14.00,2013-05-25 03:14:00,
2013-05-24 23:19:00,48.0,47.5,29.88,South,180,0.0,0.0,98,0.00,,---,0.43,VWS V14.00,2013-05-25 03:19:00,
2013-05-24 23:24:00,48.0,47.5,29.88,South,180,0.0,0.0,98,0.00,,---,0.43,VWS V14.00,2013-05-25 03:24:00,
2013-05-24 23:29:00,48.0,47.5,29.88,SSE,157,0.0,0.0,98,0.00,,---,0.43,VWS V14.00,2013-05-25 03:29:00,
2013-05-24 23:34:00,48.0,47.5,29.88,East,90,0.0,0.0,98,0.00,,---,0.43,VWS V14.00,2013-05-25 03:34:00,
2013-05-24 23:39:00,48.0,47.7,29.88,East,90,0.0,0.0,99,0.01,,---,0.44,VWS V14.00,2013-05-25 03:39:00,
2013-05-24 23:44:00,48.0,47.7,29.87,East,90,0.0,0.0,99,0.01,,---,0.44,VWS V14.00,2013-05-25 03:44:00,
2013-05-24 23:49:00,48.0,47.7,29.87,South,180,0.0,0.0,99,0.01,,---,0.44,VWS V14.00,2013-05-25 03:49:00,
2013-05-24 23:54:00,48.0,47.7,29.88,South,180,0.0,0.0,99,0.01,,---,0.44,VWS V14.00,2013-05-25 03:54:00,